TimePST,TemperatureF,Dew PointF,Humidity,Sea Level PressureIn,VisibilityMPH,Wind Direction,Wind SpeedMPH,Gust SpeedMPH,PrecipitationIn,Events,Conditions,WindDirDegrees,DateUTC
12:56 AM,55.9,44.1,64,30.14,10.0,Calm,Calm,-,N/A,,Clear,0,2012-12-05 08:56:00
1:56 AM,55.9,44.1,64,30.14,10.0,West,3.5,-,N/A,,Clear,280,2012-12-05 09:56:00
2:56 AM,54.0,44.1,69,30.13,10.0,West,3.5,-,N/A,,Clear,270,2012-12-05 10:56:00
3:56 AM,54.0,44.1,69,30.10,10.0,WSW,5.8,-,N/A,,Clear,250,2012-12-05 11:56:00
4:56 AM,51.1,43.0,74,30.10,10.0,West,6.9,-,N/A,,Clear,260,2012-12-05 12:56:00
6:56 AM,52.0,43.0,71,30.13,10.0,West,6.9,-,N/A,,Scattered Clouds,260,2012-12-05 14:56:00
7:56 AM,57.0,44.1,62,30.12,10.0,Calm,Calm,-,N/A,,Scattered Clouds,0,2012-12-05 15:56:00
8:56 AM,64.9,46.0,50,30.13,10.0,West,3.5,-,N/A,,Clear,280,2012-12-05 16:56:00
9:56 AM,73.0,46.0,38,30.13,10.0,NNW,6.9,-,N/A,,Scattered Clouds,340,2012-12-05 17:56:00
10:16 AM,73.4,46.4,38,30.07,10.0,NNW,5.8,-,N/A,,Partly Cloudy,330,2012-12-05 18:16:00
10:56 AM,75.0,48.0,38,30.09,10.0,NNE,5.8,-,N/A,,Clear,30,2012-12-05 18:56:00
11:56 AM,77.0,48.9,37,30.05,10.0,North,4.6,-,N/A,,Scattered Clouds,10,2012-12-05 19:56:00
12:56 PM,80.1,48.9,34,30.02,10.0,NNE,4.6,-,N/A,,Scattered Clouds,20,2012-12-05 20:56:00
1:56 PM,80.1,46.9,31,29.99,10.0,North,3.5,-,N/A,,Scattered Clouds,10,2012-12-05 21:56:00
2:56 PM,80.1,48.0,32,29.98,10.0,NNE,3.5,-,N/A,,Scattered Clouds,30,2012-12-05 22:56:00
3:56 PM,77.0,46.9,34,29.97,10.0,NNE,3.5,-,N/A,,Scattered Clouds,30,2012-12-05 23:56:00
4:56 PM,69.1,46.0,44,29.96,10.0,NE,4.6,-,N/A,,Scattered Clouds,40,2012-12-06 00:56:00
5:56 PM,66.0,46.9,50,29.97,10.0,Calm,Calm,-,N/A,,Scattered Clouds,0,2012-12-06 01:56:00
6:56 PM,64.0,45.0,50,29.97,10.0,Calm,Calm,-,N/A,,Scattered Clouds,0,2012-12-06 02:56:00
7:56 PM,60.1,44.1,55,29.98,10.0,Calm,Calm,-,N/A,,Partly Cloudy,0,2012-12-06 03:56:00
8:56 PM,61.0,44.1,54,29.97,10.0,Calm,Calm,-,N/A,,Scattered Clouds,0,2012-12-06 04:56:00
9:56 PM,59.0,45.0,60,29.96,10.0,West,3.5,-,N/A,,Partly Cloudy,260,2012-12-06 05:56:00
10:56 PM,59.0,44.1,58,29.96,10.0,SW,3.5,-,N/A,,Partly Cloudy,230,2012-12-06 06:56:00
11:56 PM,55.9,42.1,60,29.95,10.0,West,3.5,-,N/A,,Clear,280,2012-12-06 07:56:00